#timestamp,LO_Frequency,Hit,StdDev 
1512014415.4,286046999.7,N
1512014435.2,286047002.6,N
1512014455.1,286047000.2,N
1512014456.0,286047000.2,N
1512014475.8,286046998.2,N
1512014495.7,286046999.4,N
1512014515.5,286046998.9,N
1512014535.3,286046999.0,N
1512014555.2,286046999.3,N
1512014575.0,286046999.2,N
1512014575.9,286046999.2,N
1512014595.8,286047000.6,N
1512014615.6,286047002.8,N
1512014635.4,286047000.3,N
1512014655.3,286047004.4,Y
1512014675.1,286047003.9,P
1512014695.9,286047004.3,N
1512014715.7,286047001.5,N
1512014735.5,286047002.3,N
1512014755.4,286046999.9,N
1512014775.2,286046998.5,N
1512014795.0,286047000.7,N
1512014796.0,286047000.7,N
1512014815.8,286047002.5,N
1512014835.6,286047002.2,N
1512014855.5,286047002.2,N
1512014875.3,286047004.1,N
1512014895.1,286047003.6,N
1512014915.9,286047001.6,N
1512014935.7,286047002.0,N
1512014955.5,286047002.5,N
1512014975.4,286047004.1,N
1512014995.2,286047004.4,N
1512015015.1,286047002.0,N
1512015016.0,286047002.0,N
1512015035.8,286047002.6,N
1512015055.6,286047000.2,N
1512015075.5,286047002.8,N
1512015095.3,286047000.0,N
1512015115.2,286046999.9,N
1512015135.9,286047002.5,N
1512015155.7,286047004.3,N
1512015175.6,286047002.4,N
1512015195.4,286047004.3,N
1512015215.2,286047001.5,N
1512015235.1,286047004.2,N
1512015236.0,286047004.2,N
1512015255.8,286047003.9,N
1512015275.7,286047003.3,N
1512015295.5,286047003.1,N
1512015315.3,286047001.5,N
1512015335.2,286047001.9,N
1512015355.0,286047002.2,N
1512015355.9,286047002.2,N
1512015375.7,286047000.1,N
1512015395.6,286047002.4,N
1512015415.4,286047002.6,N
1512015435.3,286047002.5,N
1512015455.1,286047001.9,N
1512015456.0,286047001.9,N
1512015475.8,286047002.0,N
1512015495.7,286047001.6,N
1512015515.5,286047003.8,Y
1512015535.4,286047002.7,P
1512015555.2,286047000.8,P
1512015575.0,286047000.5,N
1512015575.9,286047000.5,N
1512015595.8,286046998.7,N
1512015615.6,286047000.2,N
1512015635.4,286047002.4,N
1512015655.3,286047002.5,N
1512015675.1,286047001.8,N
1512015695.9,286047001.5,N
1512015715.7,286047002.0,N
1512015735.5,286047002.0,N
1512015755.4,286047002.1,N
1512015775.2,286047003.9,Y
1512015795.0,286047002.3,P
1512015795.9,286047002.3,P
1512015815.8,286047002.2,P
1512015835.6,286047002.7,Y
1512015855.5,286046999.4,P
1512015875.3,286046997.0,N
1512015895.1,286046997.0,N
1512015915.9,286046997.4,N
1512015935.7,286046999.3,N
1512015955.6,286046996.5,N
1512015975.4,286046999.1,N
1512015995.2,286046999.3,N
1512016015.1,286046998.9,N
1512016016.0,286046998.9,N
1512016035.8,286046996.7,N
1512016055.6,286046999.5,N
1512016075.5,286046998.2,N
1512016095.3,286046998.8,N
1512016115.2,286046999.1,N
1512016135.9,286046999.3,N
1512016155.7,286046999.2,N
1512016175.6,286046996.7,N
1512016195.4,286046996.9,N
1512016215.2,286047000.8,N
1512016235.1,286047001.0,N
1512016236.0,286047001.0,N
1512016255.8,286047000.9,N
1512016275.7,286047000.3,N
1512016295.5,286047000.3,N
1512016315.3,286046999.9,N
1512016335.2,286047000.2,N
1512016355.0,286047000.1,N
1512016355.9,286047000.1,N
1512016375.7,286047000.1,N
1512016395.6,286047002.2,N
1512016415.4,286047002.3,N
1512016435.3,286047002.8,N
1512016455.1,286047002.3,N
1512016475.8,286047001.5,N
1512016495.7,286047002.7,N
1512016515.5,286047001.9,N
1512016535.4,286047002.6,N
1512016555.2,286047000.0,N
1512016575.0,286047001.2,N
1512016575.9,286047001.2,N
1512016595.8,286046999.8,N
1512016615.6,286047002.7,N
1512016635.5,286046998.2,N
1512016655.3,286046998.4,N
1512016675.1,286046999.0,N
1512016695.9,286046998.6,N
1512016715.7,286046998.8,N
1512016735.5,286046998.1,N
1512016755.4,286046999.0,N
1512016775.2,286047001.0,N
1512016795.1,286046998.6,N
1512016796.0,286046998.6,N
1512016815.8,286046998.7,N
1512016835.6,286047000.9,N
1512016855.5,286047001.1,N
1512016875.3,286047000.7,N
1512016895.1,286046998.4,N
1512016915.9,286047001.2,N
1512016935.7,286046998.1,N
1512016955.6,286046998.4,N
1512016975.4,286046999.1,N
1512016995.2,286046998.2,N
1512017015.1,286046998.3,N
1512017016.0,286046998.3,N
1512017035.8,286047001.2,N
1512017055.7,286046999.0,N
1512017075.5,286047000.0,N
1512017095.3,286047002.4,N
1512017115.2,286047000.2,N
1512017135.9,286047002.8,N
1512017155.7,286047000.4,N
1512017175.6,286047000.6,N
1512017195.4,286047001.0,N
1512017215.3,286046998.6,N
1512017235.1,286047000.3,N
1512017236.0,286047000.3,N
1512017255.8,286047000.7,N
1512017275.7,286047000.8,N
1512017295.5,286046998.1,N
1512017315.3,286047000.5,N
1512017335.2,286047000.2,N
1512017355.0,286046998.3,N
1512017355.9,286046998.3,N
1512017375.8,286046996.6,N
1512017395.6,286047000.9,N
1512017415.4,286047001.1,N
1512017435.3,286047002.7,N
1512017455.1,286047002.7,N
1512017475.9,286047001.0,N
1512017495.7,286046999.4,N
1512017515.6,286046998.9,N
1512017535.4,286047000.9,N
1512017555.2,286047000.5,N
1512017575.1,286047001.2,N
1512017576.0,286047001.2,N
1512017595.8,286047000.8,N
1512017615.6,286047000.5,N
1512017635.5,286047002.0,N
1512017655.3,286047002.2,N
1512017675.2,286047000.0,N
1512017695.9,286047001.2,N
1512017715.7,286047002.3,N
1512017735.6,286047000.5,N
1512017755.4,286047000.7,N
1512017775.3,286047001.0,N
1512017795.1,286047000.7,N
1512017796.0,286047000.7,N
1512017815.8,286047000.0,N
1512017835.7,286046998.1,N
1512017855.5,286046998.6,N
1512017875.3,286046998.5,N
1512017895.2,286046999.1,N
1512017915.0,286046999.1,N
1512017915.9,286046999.1,N
1512017935.8,286046999.4,N
1512017955.6,286046998.2,N
1512017975.4,286046999.4,N
1512017995.3,286046998.9,N
